Home > Weather > Cuzco > Past weeks

Flag for Peru Past Weather in Cuzco, Cusco, Peru — Yesterday and Last 2 Weeks

Now
46 °F

Partly cloudy.


Feels Like: 46 °F
Forecast: 37 / 54 °F
Wind: 2 mph from North

Location: Cuzco Airport

Current Time: Jun 28, 2016 at 6:27:50 AM

Latest Report: Jun 28, 2016 at 6:00 AM


Visibility: N/A

Pressure: 30.54 "Hg (20.25 "Hg at 3379m altitude)

Humidity: 71%

Dew Point: 37 °F

Location of CuzcoLocation

Past Weather in Cuzco — Graph

°F

Cuzco Temperature Yesterday

Maximum temperature yesterday: 61 °F (at 2:00 PM)
Minimum temperature yesterday: 39 °F (at 12:00 AM)
Average temperature yesterday: 49 °F

High & Low Weather Summary for the Past Weeks

 TemperatureHumidityPressure
High72 °F (Jun 13, 2:00 PM)93% (Jun 22, 7:00 AM)30.72 "Hg (Jun 22, 7:00 AM)
Low28 °F (Jun 16, 5:00 AM)7% (Jun 14, 3:00 PM)30.36 "Hg (Jun 18, 3:00 PM)
Average50 °F48%30.53 "Hg
* Reported Jun 13 5:00 AM — Jun 28 5:00 AM, Cuzco, Weather by CustomWeather, © 2016

Note: Actual official high and low records may vary slightly from our data, if they occured in-between our weather recording intervals... More about our weather records

Advertising

Cuzco Weather History for the Previous 24 Hours

Scroll right to see more
 ConditionsComfort  
Time TempWeatherWind HumidityBarometerVisibility
5:00 AM
Tue, Jun 28
46 °FPartly cloudy.1 mph71%30.54 "HgN/A
4:00 AM46 °FPartly cloudy.2 mph71%30.54 "HgN/A
3:00 AM46 °FPartly cloudy.No wind71%30.54 "HgN/A
2:00 AM46 °FPartly cloudy.No wind71%30.54 "HgN/A
1:00 AM45 °FPartly cloudy.No wind76%30.54 "HgN/A
12:00 AM46 °FPassing clouds.2 mph71%30.57 "HgN/A
11:00 PM
Mon, Jun 27
48 °FPassing clouds.2 mph66%30.57 "HgN/A
10:00 PM48 °FPassing clouds.6 mph66%30.57 "HgN/A
9:00 PM48 °FPassing clouds.7 mph62%30.57 "HgN/A
8:00 PM50 °FPartly cloudy.9 mph62%30.54 "HgN/A
7:00 PM52 °FPartly cloudy.8 mph62%30.54 "HgN/A
6:00 PM54 °FPassing clouds.3 mph54%30.48 "HgN/A
5:00 PM54 °FScattered showers. Broken clouds.12 mph54%30.48 "HgN/A
4:00 PM55 °FBroken clouds.10 mph47%30.45 "HgN/A
3:00 PM59 °FBroken clouds.12 mph39%30.45 "HgN/A
2:00 PM61 °FBroken clouds.3 mph36%30.48 "HgN/A
1:00 PM59 °FBroken clouds.2 mph39%30.51 "HgN/A
12:00 PM57 °FBroken clouds.3 mph41%30.54 "HgN/A
11:00 AM55 °FBroken clouds.2 mph44%30.57 "HgN/A
10:00 AM54 °FBroken clouds.2 mph51%30.60 "HgN/A
9:00 AM48 °FBroken clouds.3 mph58%30.60 "HgN/A
8:00 AM45 °FBroken clouds.3 mph71%30.60 "HgN/A
7:00 AM43 °FBroken clouds.No wind71%30.60 "HgN/A
6:00 AM41 °FPartly cloudy.No wind70%30.57 "HgN/A
Weather by CustomWeather, © 2016

See weather overviewHow to use our weather pages